Torna al catalogo

STARLINK-30878

AttivoComunicazioniVLEO
NORAD 58359·PAYLOAD·🇺🇸 United States

Lanciato Nov 18, 2023 da Cape Canaveral Space Force Station

Loading…

Prossimi Passaggi (prossime 24 ore)

TLE

AggiornatoSource: CelesTrak SupGP

Epoca: Sep 15, 2026, 03:09 UTC

1 58359C 23177J   26258.13173611  .00029712  00000+0  10763-2 0  2583
2 58359  43.0038   4.0761 0001637 271.7259 347.0540 15.27559925    12

Traccia STARLINK-30878 in tempo reale con AllMySat

Download on the App Store